This demonstration page uses our WeatherBlox Daily Observations layout. Learn more.

Left ArrowRight Arrow

39.29038, -76.61219

Hourly Observations for December 3, 2022

Temp ( °F °C ) Dew Point ( °F °C ) Humidity (%) Winds ( mph kmh ) Pressure ( in mb ) Visibility ( mi km ) Precip ( " mm )
12:54 am 00:54 undefined 49 9.4 36 2.2 61 61 undefined N/A 30.34 1027 N/A 0.00 0.00
1:54 am 01:54 undefined 49 9.4 38 3.3 66 66 undefined N/A 30.31 1026 N/A 0.00 0.00
2:54 am 02:54 undefined 49 9.4 39 3.9 68 68 undefined N/A 30.29 1026 N/A 0.00 0.00
3:54 am 03:54 undefined 52 11.1 42 5.6 69 69 undefined N/A 30.25 1024 N/A 0.00 0.00
4:54 am 04:54 undefined 53 11.7 45 7.2 74 74 undefined N/A 30.22 1024 N/A 0.00 0.00
5:54 am 05:54 undefined 54 12.2 46 7.8 74 74 undefined N/A 30.20 1023 N/A 0.00 0.00
6:54 am 06:54 undefined 52 11.1 48 8.9 86 86 undefined N/A 30.22 1023 N/A 0.03 0.76
7:54 am 07:54 undefined 52 11.1 49 9.4 89 89 undefined N/A 30.17 1022 N/A 0.23 5.84
8:54 am 08:54 undefined 53 11.7 50 10 89 89 undefined N/A 30.18 1022 N/A 0.10 2.54
9:54 am 09:54 undefined 54 12.2 51 10.6 90 90 undefined N/A 30.15 1021 N/A 0.08 2.03
10:54 am 10:54 undefined 55 12.8 51 10.6 86 86 undefined N/A 30.12 1020 N/A 0.03 0.76
11:54 am 11:54 undefined 57 13.9 52 11.1 83 83 undefined N/A 30.09 1019 N/A 0.00 0.00
12:54 pm 12:54 undefined 60 15.6 53 11.7 78 78 undefined N/A 30.06 1018 N/A 0.00 0.00
1:54 pm 13:54 undefined 62 16.7 53 11.7 72 72 undefined N/A 30.04 1017 N/A 0.00 0.00
2:54 pm 14:54 undefined 62 16.7 53 11.7 72 72 undefined N/A 30.01 1016 N/A 0.00 0.00
3:54 pm 15:54 undefined 62 16.7 52 11.1 70 70 undefined N/A 30.01 1016 N/A 0.00 0.00
4:54 pm 16:54 undefined 61 16.1 52 11.1 72 72 undefined N/A 30.03 1017 N/A 0.00 0.00
5:54 pm 17:54 undefined 60 15.6 52 11.1 75 75 undefined N/A 30.07 1018 N/A 0.00 0.00
8:54 pm 20:54 undefined 53 11.7 34 1.1 48 48 undefined N/A 30.18 1022 N/A 0.00 0.00
9:54 pm 21:54 undefined 50 10 32 0 50 50 undefined N/A 30.22 1023 N/A 0.00 0.00
10:54 pm 22:54 undefined 49 9.4 30 -1.1 48 48 undefined N/A 30.23 1024 N/A 0.00 0.00
11:54 pm 23:54 undefined 47 8.3 29 -1.7 49 49 undefined N/A 30.23 1024 N/A 0.00 0.00

Powered by AerisWeather